Overview Statistics Trail Chart Weather Telemetry Raw packets
 

This is the latest recevied weather packets stored in our database for station/object IZ7EXI-13. If no packets are shown the sender has not sent any weather packets the latest 10 day(s).

<< 22 23 24 25 26 27 28 >>
Time Temp. Humidity Pressure Rain* Wind** Luminosity Snow
1788252718 31.11° C 55% 1019.3 hPa - - - -
1788251818 31.67° C 54% 1019.3 hPa - - - -
1788250918 31.11° C 56% 1019.3 hPa - - - -
1788250017 31.11° C 58% 1019.2 hPa - - - -
1788249117 31.11° C 63% 1019 hPa - - - -
1788248250 30.56° C 67% 1018.9 hPa - - - -
1788248217 30.56° C 67% 1018.9 hPa - - - -
1788247317 30.56° C 68% 1018.8 hPa - - - -
1788246417 30° C 67% 1018.8 hPa - - - -
1788245548 29.44° C 69% 1018.8 hPa - - - -
1788245516 29.44° C 69% 1018.8 hPa - - - -
1788244616 29.44° C 69% 1018.7 hPa - - - -
1788243750 29.44° C 69% 1018.9 hPa - - - -
1788243716 29.44° C 69% 1018.9 hPa - - - -
1788242816 28.33° C 72% 1018.9 hPa - - - -
1788241916 27.78° C 73% 1018.9 hPa - - - -
1788241015 27.22° C 74% 1018.8 hPa - - - -
1788240115 26.67° C 76% 1018.7 hPa - - - -
1788239215 26.11° C 76% 1018.6 hPa - - - -
1788238315 26.11° C 77% 1018.4 hPa - - - -
1788237415 26.11° C 78% 1018.3 hPa - - - -
1788236514 26.11° C 77% 1018.2 hPa - - - -
1788235614 25.56° C 77% 1018.1 hPa - - - -
1788234714 26.11° C 77% 1018.1 hPa - - - -
1788233814 26.11° C 78% 1018.1 hPa - - - -

* Rain since midnight (hover to see other rain measurements)
** Current wind speed in m/s (hover to see current wind gust speed)